SHT18A EGLL-EGPD

Flight info

Callsign SHT18A
Flight time 1h 1m
Altitude 36000
Route ULTIB1J ULTIB T420 AKUPA UY250 KEFTE DCT AGPED/N0438F350 DCT MADAD/N0401F240 P18 EPCAN DCT
Aircraft A319/M-SDE3FGIJ1KRWXY/LB1

Departure

Time 2026-05-09 08:24
Airport London Heathrow Airport (EGLL)

Arrival

Time 2026-05-09 09:26
Airport Aberdeen International Airport (EGPD)
Time Latitude Longitude Altitude Speed Heading
2026-05-09 07:47 51.46932 -0.48715 86 ft 0 kts 359°
2026-05-09 08:16 51.46919 -0.48715 90 ft 4 kts 359°
2026-05-09 08:16 51.46896 -0.48715 88 ft 2 kts 359°
2026-05-09 08:16 51.46879 -0.48706 87 ft 3 kts 285°
2026-05-09 08:17 51.46877 -0.48668 86 ft 2 kts 269°
2026-05-09 08:17 51.46877 -0.48664 86 ft 0 kts 269°
2026-05-09 08:21 51.46876 -0.48693 90 ft 8 kts 268°
2026-05-09 08:21 51.46835 -0.48748 87 ft 10 kts 184°
2026-05-09 08:21 51.46758 -0.48749 86 ft 12 kts 178°
2026-05-09 08:22 51.46663 -0.48747 86 ft 13 kts 181°
2026-05-09 08:22 51.46645 -0.48748 86 ft 3 kts 184°
2026-05-09 08:22 51.46613 -0.48761 86 ft 6 kts 195°
2026-05-09 08:22 51.46597 -0.48768 89 ft 1 kts 195°
2026-05-09 08:23 51.46578 -0.48778 88 ft 6 kts 198°
2026-05-09 08:23 51.46520 -0.48778 88 ft 11 kts 159°
2026-05-09 08:23 51.46479 -0.48657 86 ft 10 kts 88°
2026-05-09 08:23 51.46479 -0.48633 86 ft 0 kts 90°
2026-05-09 08:24 51.46480 -0.48411 87 ft 53 kts 89°
2026-05-09 08:24 51.46485 -0.47468 89 ft 115 kts 89°
2026-05-09 08:24 51.46498 -0.45918 160 ft 156 kts 88°
2026-05-09 08:24 51.46546 -0.44255 952 ft 145 kts 87°
2026-05-09 08:25 51.46576 -0.42615 1536 ft 154 kts 89°
2026-05-09 08:25 51.46852 -0.40837 1862 ft 179 kts 63°
2026-05-09 08:25 51.47673 -0.39143 2197 ft 206 kts 53°
2026-05-09 08:25 51.48649 -0.37263 2734 ft 231 kts 52°
2026-05-09 08:26 51.49724 -0.35194 3428 ft 249 kts 52°
2026-05-09 08:26 51.50849 -0.33031 4440 ft 254 kts 52°
2026-05-09 08:26 51.51976 -0.30795 5446 ft 262 kts 57°
2026-05-09 08:26 51.52731 -0.28132 5835 ft 264 kts 72°
2026-05-09 08:27 51.53432 -0.25411 5954 ft 265 kts 59°
2026-05-09 08:27 51.54731 -0.23323 5979 ft 269 kts 32°
2026-05-09 08:27 51.55873 -0.22546 5979 ft 271 kts 15°
2026-05-09 08:27 51.57753 -0.22527 5973 ft 275 kts 349°
2026-05-09 08:28 51.59632 -0.23236 6455 ft 280 kts 349°
2026-05-09 08:28 51.61270 -0.23847 7314 ft 281 kts 343°
2026-05-09 08:28 51.63063 -0.25139 8285 ft 284 kts 330°
2026-05-09 08:28 51.64780 -0.26731 9266 ft 286 kts 328°
2026-05-09 08:29 51.66501 -0.28365 10243 ft 289 kts 328°
2026-05-09 08:29 51.68291 -0.30083 10696 ft 311 kts 327°
2026-05-09 08:29 51.70213 -0.31938 11080 ft 330 kts 328°
2026-05-09 08:29 51.72207 -0.33866 11798 ft 337 kts 327°
2026-05-09 08:30 51.74230 -0.35819 12597 ft 341 kts 328°
2026-05-09 08:30 51.76251 -0.37773 13395 ft 344 kts 327°
2026-05-09 08:30 51.78313 -0.39765 14147 ft 347 kts 328°
2026-05-09 08:30 51.80397 -0.41780 14822 ft 351 kts 327°
2026-05-09 08:31 51.82511 -0.43827 15476 ft 356 kts 327°
2026-05-09 08:31 51.84657 -0.45905 16128 ft 361 kts 328°
2026-05-09 08:31 51.86822 -0.48008 16762 ft 365 kts 328°
2026-05-09 08:31 51.89015 -0.50139 17403 ft 370 kts 327°
2026-05-09 08:32 51.91245 -0.52313 18036 ft 375 kts 327°
2026-05-09 08:32 51.93495 -0.54509 18639 ft 380 kts 327°
2026-05-09 08:32 51.98084 -0.58988 19769 ft 388 kts 327°
2026-05-09 08:33 52.00381 -0.61233 20319 ft 393 kts 327°
2026-05-09 08:33 52.02737 -0.63540 20875 ft 397 kts 327°
2026-05-09 08:33 52.05114 -0.65876 21446 ft 402 kts 327°
2026-05-09 08:33 52.07517 -0.68238 22020 ft 405 kts 326°
2026-05-09 08:34 52.09940 -0.70622 22557 ft 409 kts 326°
2026-05-09 08:34 52.12387 -0.73031 23074 ft 413 kts 326°
2026-05-09 08:34 52.14863 -0.75472 23578 ft 417 kts 326°
2026-05-09 08:34 52.17357 -0.77934 24012 ft 421 kts 326°
2026-05-09 08:35 52.19876 -0.80424 24437 ft 425 kts 326°
2026-05-09 08:35 52.22415 -0.82934 24850 ft 429 kts 326°
2026-05-09 08:35 52.24978 -0.85473 25258 ft 432 kts 326°
2026-05-09 08:35 52.27556 -0.88032 25663 ft 436 kts 326°
2026-05-09 08:36 52.30151 -0.90612 26099 ft 438 kts 325°
2026-05-09 08:36 52.32764 -0.93214 26522 ft 441 kts 325°
2026-05-09 08:36 52.35394 -0.95836 26930 ft 444 kts 325°
2026-05-09 08:36 52.38044 -0.98482 27326 ft 447 kts 325°
2026-05-09 08:37 52.40704 -1.01142 27717 ft 451 kts 325°
2026-05-09 08:37 52.43403 -1.03839 28074 ft 455 kts 326°
2026-05-09 08:37 52.46248 -1.06191 28439 ft 463 kts 335°
2026-05-09 08:37 52.49337 -1.07808 28809 ft 469 kts 345°
2026-05-09 08:38 52.52533 -1.08607 29172 ft 475 kts 354°
2026-05-09 08:38 52.55858 -1.08593 29531 ft 479 kts
2026-05-09 08:38 52.59199 -1.08331 29889 ft 482 kts
2026-05-09 08:38 52.62559 -1.08072 30227 ft 485 kts
2026-05-09 08:39 52.65942 -1.07816 30523 ft 488 kts
2026-05-09 08:39 52.69348 -1.07558 30833 ft 490 kts
2026-05-09 08:39 52.72759 -1.07375 31139 ft 492 kts 358°
2026-05-09 08:39 52.76174 -1.07839 31477 ft 492 kts 349°
2026-05-09 08:40 52.79538 -1.08851 31868 ft 491 kts 347°
2026-05-09 08:40 52.82888 -1.09879 32323 ft 489 kts 347°
2026-05-09 08:40 52.86230 -1.10898 32769 ft 488 kts 347°
2026-05-09 08:40 52.89569 -1.11912 33210 ft 487 kts 347°
2026-05-09 08:41 52.92854 -1.12908 33648 ft 486 kts 347°
2026-05-09 08:41 52.96177 -1.13919 34099 ft 485 kts 347°
2026-05-09 08:41 52.99493 -1.14931 34501 ft 483 kts 347°
2026-05-09 08:41 53.02792 -1.15941 34941 ft 481 kts 347°
2026-05-09 08:42 53.06074 -1.16946 35403 ft 478 kts 347°
2026-05-09 08:42 53.09344 -1.17949 35841 ft 476 kts 347°
2026-05-09 08:42 53.12607 -1.18952 36114 ft 475 kts 347°
2026-05-09 08:43 53.19064 -1.20936 36178 ft 470 kts 347°
2026-05-09 08:43 53.25432 -1.22905 36194 ft 469 kts 346°
2026-05-09 08:44 53.31796 -1.24886 36185 ft 468 kts 346°
2026-05-09 08:44 53.38208 -1.26888 36191 ft 468 kts 346°
2026-05-09 08:45 53.44671 -1.28361 36194 ft 470 kts 353°
2026-05-09 08:45 53.51204 -1.29133 36193 ft 470 kts 353°
2026-05-09 08:46 53.57656 -1.30618 36195 ft 466 kts 341°
2026-05-09 08:46 53.63516 -1.34952 36192 ft 457 kts 325°
2026-05-09 08:47 53.68951 -1.40457 36190 ft 457 kts 325°
2026-05-09 08:47 53.74410 -1.45995 36213 ft 458 kts 324°
2026-05-09 08:48 53.79836 -1.51517 36212 ft 457 kts 324°
2026-05-09 08:48 53.85307 -1.57122 36221 ft 457 kts 324°
2026-05-09 08:49 53.90709 -1.62670 36208 ft 457 kts 324°
2026-05-09 08:49 53.96146 -1.68262 36202 ft 457 kts 324°
2026-05-09 08:50 54.01792 -1.73284 36209 ft 463 kts 336°
2026-05-09 08:50 54.08155 -1.75432 36212 ft 470 kts 351°
2026-05-09 08:51 54.14663 -1.76590 36225 ft 470 kts 351°
2026-05-09 08:51 54.21160 -1.77793 36224 ft 470 kts 350°
2026-05-09 08:52 54.27658 -1.79017 36240 ft 470 kts 350°
2026-05-09 08:52 54.34154 -1.80220 36239 ft 469 kts 350°
2026-05-09 08:53 54.40652 -1.81422 36232 ft 469 kts 350°
2026-05-09 08:53 54.47153 -1.82623 36240 ft 469 kts 350°
2026-05-09 08:54 54.53605 -1.83819 36234 ft 469 kts 349°
2026-05-09 08:54 54.60091 -1.85025 36229 ft 469 kts 349°
2026-05-09 08:55 54.66576 -1.86234 36238 ft 468 kts 349°
2026-05-09 08:55 54.73057 -1.87454 36227 ft 468 kts 349°
2026-05-09 08:56 54.79543 -1.88690 36242 ft 469 kts 349°
2026-05-09 08:56 54.86032 -1.89931 36236 ft 469 kts 349°
2026-05-09 08:57 54.92531 -1.91169 36237 ft 470 kts 349°
2026-05-09 08:57 54.98988 -1.92398 36235 ft 470 kts 349°
2026-05-09 08:58 55.05487 -1.93631 36252 ft 470 kts 349°
2026-05-09 08:58 55.12014 -1.94579 36248 ft 475 kts 356°
2026-05-09 08:59 55.18622 -1.93212 36252 ft 480 kts
2026-05-09 08:59 55.25222 -1.91438 36285 ft 480 kts
2026-05-09 08:59 55.28534 -1.90550 36057 ft 481 kts
2026-05-09 09:00 55.31845 -1.89659 35794 ft 482 kts
2026-05-09 09:00 55.35174 -1.88760 34962 ft 489 kts
2026-05-09 09:00 55.38570 -1.87849 34023 ft 497 kts
2026-05-09 09:00 55.42012 -1.86928 32978 ft 503 kts
2026-05-09 09:01 55.45487 -1.85991 32124 ft 505 kts
2026-05-09 09:01 55.48938 -1.85049 31600 ft 499 kts
2026-05-09 09:01 55.52367 -1.84107 30985 ft 497 kts
2026-05-09 09:01 55.55778 -1.83171 30345 ft 495 kts
2026-05-09 09:02 55.59168 -1.82243 29660 ft 491 kts
2026-05-09 09:02 55.62524 -1.81321 29039 ft 485 kts
2026-05-09 09:02 55.65824 -1.80410 28422 ft 474 kts
2026-05-09 09:02 55.69011 -1.79529 27831 ft 464 kts
2026-05-09 09:03 55.72164 -1.78662 27237 ft 455 kts
2026-05-09 09:03 55.75272 -1.77806 26658 ft 446 kts
2026-05-09 09:03 55.78311 -1.76969 26143 ft 438 kts
2026-05-09 09:03 55.81305 -1.76146 25569 ft 431 kts
2026-05-09 09:04 55.84239 -1.75342 25065 ft 424 kts
2026-05-09 09:04 55.87135 -1.74546 24571 ft 417 kts
2026-05-09 09:04 55.89978 -1.73953 24156 ft 404 kts 356°
2026-05-09 09:04 55.92735 -1.74079 23716 ft 389 kts 347°
2026-05-09 09:05 55.95342 -1.74857 23294 ft 373 kts 341°
2026-05-09 09:05 55.97882 -1.75804 22908 ft 372 kts 341°
2026-05-09 09:05 56.00414 -1.76744 22520 ft 370 kts 341°
2026-05-09 09:05 56.02899 -1.77667 22121 ft 368 kts 341°
2026-05-09 09:06 56.05405 -1.78593 21716 ft 366 kts 342°
2026-05-09 09:06 56.07893 -1.79512 21303 ft 364 kts 342°
2026-05-09 09:06 56.10365 -1.80424 20891 ft 361 kts 342°
2026-05-09 09:06 56.12821 -1.81332 20466 ft 359 kts 342°
2026-05-09 09:07 56.15258 -1.82239 20037 ft 357 kts 342°
2026-05-09 09:07 56.17685 -1.83145 19611 ft 355 kts 342°
2026-05-09 09:07 56.20098 -1.84048 19151 ft 353 kts 343°
2026-05-09 09:07 56.22501 -1.84945 18699 ft 352 kts 343°
2026-05-09 09:08 56.24897 -1.85838 18192 ft 351 kts 343°
2026-05-09 09:08 56.27282 -1.86728 17733 ft 348 kts 343°
2026-05-09 09:08 56.29644 -1.87614 17300 ft 346 kts 343°
2026-05-09 09:08 56.31992 -1.88495 16820 ft 344 kts 343°
2026-05-09 09:09 56.34324 -1.89373 16374 ft 342 kts 343°
2026-05-09 09:09 56.36647 -1.90249 15918 ft 340 kts 343°
2026-05-09 09:09 56.38965 -1.91123 15457 ft 339 kts 344°
2026-05-09 09:09 56.41239 -1.91984 15015 ft 337 kts 344°
2026-05-09 09:10 56.43528 -1.92853 14565 ft 335 kts 344°
2026-05-09 09:10 56.45804 -1.93718 14111 ft 334 kts 344°
2026-05-09 09:10 56.48074 -1.94575 13622 ft 332 kts 344°
2026-05-09 09:10 56.50336 -1.95430 13165 ft 331 kts 344°
2026-05-09 09:11 56.52583 -1.96282 12712 ft 329 kts 344°
2026-05-09 09:11 56.54810 -1.97126 12265 ft 326 kts 344°
2026-05-09 09:11 56.57024 -1.97964 11833 ft 324 kts 345°
2026-05-09 09:11 56.59224 -1.98800 11377 ft 322 kts 344°
2026-05-09 09:12 56.61405 -1.99631 10938 ft 320 kts 344°
2026-05-09 09:12 56.63574 -2.00459 10625 ft 314 kts 345°
2026-05-09 09:12 56.65668 -2.01253 10489 ft 302 kts 344°
2026-05-09 09:12 56.67704 -2.02029 10254 ft 296 kts 344°
2026-05-09 09:13 56.69706 -2.02799 10117 ft 294 kts 344°
2026-05-09 09:13 56.71713 -2.03575 9763 ft 296 kts 344°
2026-05-09 09:13 56.73718 -2.04349 9429 ft 292 kts 344°
2026-05-09 09:13 56.75694 -2.05106 9050 ft 290 kts 343°
2026-05-09 09:14 56.77666 -2.05864 8669 ft 288 kts 343°
2026-05-09 09:14 56.79619 -2.06615 8314 ft 285 kts 345°
2026-05-09 09:14 56.81549 -2.07359 7981 ft 282 kts 345°
2026-05-09 09:14 56.83460 -2.08096 7657 ft 279 kts 344°
2026-05-09 09:15 56.85349 -2.08827 7322 ft 276 kts 344°
2026-05-09 09:15 56.87219 -2.09550 6999 ft 273 kts 345°
2026-05-09 09:15 56.89073 -2.10269 6655 ft 271 kts 344°
2026-05-09 09:15 56.90888 -2.10977 6298 ft 269 kts 344°
2026-05-09 09:16 56.92719 -2.11556 5972 ft 267 kts 353°
2026-05-09 09:16 56.96451 -2.11346 4903 ft 276 kts
2026-05-09 09:16 56.98404 -2.11213 4112 ft 285 kts
2026-05-09 09:17 57.00397 -2.11077 3515 ft 285 kts
2026-05-09 09:17 57.02329 -2.10943 3314 ft 271 kts
2026-05-09 09:17 57.04167 -2.10815 3191 ft 258 kts
2026-05-09 09:17 57.05337 -2.10734 3106 ft 250 kts
2026-05-09 09:18 57.07034 -2.10616 2993 ft 238 kts
2026-05-09 09:18 57.08647 -2.10503 2875 ft 223 kts
2026-05-09 09:18 57.10095 -2.10046 2808 ft 202 kts 21°
2026-05-09 09:18 57.11204 -2.08625 2812 ft 190 kts 45°
2026-05-09 09:19 57.11835 -2.06547 2852 ft 182 kts 69°
2026-05-09 09:19 57.11941 -2.04337 2850 ft 168 kts 94°
2026-05-09 09:19 57.11649 -2.02197 2935 ft 183 kts 103°
2026-05-09 09:19 57.11263 -1.99903 2982 ft 190 kts 104°
2026-05-09 09:20 57.10641 -1.97755 3015 ft 197 kts 133°
2026-05-09 09:20 57.09405 -1.96645 2931 ft 201 kts 172°
2026-05-09 09:20 57.08008 -1.96858 2805 ft 202 kts 197°
2026-05-09 09:20 57.06907 -1.98347 2673 ft 197 kts 238°
2026-05-09 09:21 57.06372 -2.00586 2590 ft 189 kts 262°
2026-05-09 09:21 57.06149 -2.02952 2505 ft 186 kts 268°
2026-05-09 09:21 57.06125 -2.05311 2512 ft 184 kts 277°
2026-05-09 09:21 57.06384 -2.07504 2503 ft 166 kts 298°
2026-05-09 09:22 57.06943 -2.09211 2517 ft 153 kts 315°
2026-05-09 09:22 57.07731 -2.10492 2517 ft 148 kts 331°
2026-05-09 09:22 57.08638 -2.11285 2490 ft 146 kts 342°
2026-05-09 09:22 57.09587 -2.11980 2362 ft 146 kts 339°
2026-05-09 09:23 57.10531 -2.12671 2187 ft 146 kts 339°
2026-05-09 09:23 57.11470 -2.13360 1989 ft 146 kts 340°
2026-05-09 09:23 57.12407 -2.14048 1796 ft 140 kts 340°
2026-05-09 09:23 57.13257 -2.14674 1593 ft 126 kts 339°
2026-05-09 09:24 57.14053 -2.15258 1426 ft 120 kts 340°
2026-05-09 09:24 57.14818 -2.15816 1271 ft 117 kts 339°
2026-05-09 09:24 57.15583 -2.16360 1129 ft 118 kts 339°
2026-05-09 09:24 57.16343 -2.16917 981 ft 117 kts 338°
2026-05-09 09:25 57.17094 -2.17502 802 ft 116 kts 336°
2026-05-09 09:25 57.17850 -2.18054 633 ft 117 kts 338°
2026-05-09 09:25 57.18613 -2.18592 453 ft 118 kts 339°
2026-05-09 09:25 57.19375 -2.19152 288 ft 117 kts 336°
2026-05-09 09:26 57.20097 -2.19689 219 ft 104 kts 338°
2026-05-09 09:26 57.20651 -2.20123 208 ft 49 kts 338°
2026-05-09 09:26 57.20750 -2.20192 201 ft 4 kts 340°
2026-05-09 09:26 57.20836 -2.20248 206 ft 17 kts 339°
2026-05-09 09:27 57.20926 -2.20392 203 ft 12 kts 258°
2026-05-09 09:27 57.20869 -2.20489 211 ft 12 kts 207°
2026-05-09 09:27 57.20786 -2.20540 204 ft 14 kts 178°
2026-05-09 09:27 57.20684 -2.20470 206 ft 17 kts 157°
2026-05-09 09:28 57.20579 -2.20388 209 ft 10 kts 158°
2026-05-09 09:28 57.20518 -2.20343 207 ft 10 kts 163°
2026-05-09 09:28 57.20441 -2.20385 205 ft 13 kts 180°
2026-05-09 09:28 57.20349 -2.20331 205 ft 15 kts 159°
2026-05-09 09:29 57.20243 -2.20255 203 ft 13 kts 159°
2026-05-09 09:29 57.20180 -2.20216 214 ft 5 kts 180°
2026-05-09 09:29 57.20147 -2.20248 211 ft 5 kts 236°
2026-05-09 09:29 57.20140 -2.20280 202 ft 3 kts 248°
2026-05-09 09:30 57.20136 -2.20299 212 ft 0 kts 248°